PLT8540 SBGR-FAOR

Flight info

Callsign PLT8540
Flight time N/A
Altitude 39000
Route UREMI DCT DORLU UZ42 UGRAD DCT CIDER DCT 26S035W 27S030W 28S025W 29S020W 30S015W 30S010W 30S005W/N0477F410 30S000E 30S005E 30S010E DCT UVGOD DCT ABV UQ11 AVUSA UQ19 AVAGO AVAGO1C
Aircraft A359/H-SDE2E3GHIJ1J3J4J5LM1ORWXY/LB1D1

Departure

Time 2026-05-04 03:31
Airport São Paulo/Guarulhos–Governor André Franco Montoro International Airport (SBGR)

Arrival

Time N/A
Airport O.R. Tambo International Airport (FAOR)
Time Latitude Longitude Altitude Speed Heading
2026-05-04 03:12 -23.42908 -46.47880 2458 ft 0 kts 270°
2026-05-04 03:24 -23.42908 -46.47875 2466 ft 2 kts 266°
2026-05-04 03:24 -23.42903 -46.47858 2468 ft 2 kts 238°
2026-05-04 03:25 -23.42891 -46.47845 2471 ft 2 kts 199°
2026-05-04 03:25 -23.42876 -46.47841 2465 ft 2 kts 180°
2026-05-04 03:25 -23.42861 -46.47842 2469 ft 1 kts 166°
2026-05-04 03:25 -23.42859 -46.47842 2468 ft 0 kts 164°
2026-05-04 03:27 -23.42861 -46.47842 2469 ft 3 kts 164°
2026-05-04 03:27 -23.42926 -46.47832 2466 ft 15 kts 177°
2026-05-04 03:27 -23.43053 -46.47816 2470 ft 17 kts 174°
2026-05-04 03:28 -23.43127 -46.47885 2475 ft 14 kts 244°
2026-05-04 03:28 -23.43163 -46.47987 2472 ft 15 kts 249°
2026-05-04 03:28 -23.43194 -46.48084 2474 ft 13 kts 253°
2026-05-04 03:28 -23.43217 -46.48171 2478 ft 11 kts 253°
2026-05-04 03:29 -23.43233 -46.48254 2476 ft 12 kts 255°
2026-05-04 03:29 -23.43272 -46.48302 2476 ft 6 kts 176°
2026-05-04 03:29 -23.43316 -46.48311 2475 ft 8 kts 179°
2026-05-04 03:29 -23.43365 -46.48282 2474 ft 7 kts 148°
2026-05-04 03:30 -23.43399 -46.48237 2475 ft 9 kts 115°
2026-05-04 03:30 -23.43399 -46.48181 2472 ft 8 kts 77°
2026-05-04 03:30 -23.43355 -46.48033 2477 ft 45 kts 66°
2026-05-04 03:30 -23.43184 -46.47513 2472 ft 100 kts 70°
2026-05-04 03:31 -23.42963 -46.46626 2478 ft 144 kts 71°
2026-05-04 03:31 -23.42617 -46.45460 2618 ft 172 kts 68°
2026-05-04 03:31 -23.42216 -46.44262 3052 ft 165 kts 68°
2026-05-04 03:31 -23.41739 -46.43145 3369 ft 184 kts 52°
2026-05-04 03:32 -23.41157 -46.41924 4044 ft 179 kts 75°
2026-05-04 03:32 -23.40962 -46.40528 4552 ft 187 kts 80°
2026-05-04 03:32 -23.40657 -46.39112 4774 ft 198 kts 74°
2026-05-04 03:32 -23.40264 -46.37674 5347 ft 199 kts 70°
2026-05-04 03:33 -23.39995 -46.36157 5798 ft 211 kts 90°
2026-05-04 03:33 -23.40343 -46.34573 6347 ft 217 kts 109°
2026-05-04 03:33 -23.40893 -46.33037 6819 ft 226 kts 108°
2026-05-04 03:33 -23.41448 -46.31376 7062 ft 240 kts 106°
2026-05-04 03:34 -23.42008 -46.29614 7315 ft 254 kts 106°
2026-05-04 03:34 -23.42605 -46.27747 7588 ft 267 kts 106°
2026-05-04 03:34 -23.43225 -46.25798 7960 ft 276 kts 106°
2026-05-04 03:34 -23.43786 -46.23776 8423 ft 281 kts 99°
2026-05-04 03:35 -23.44156 -46.21679 8859 ft 287 kts 96°
2026-05-04 03:35 -23.44340 -46.19503 9364 ft 290 kts 84°
2026-05-04 03:35 -23.44177 -46.17291 9820 ft 295 kts 81°
2026-05-04 03:35 -23.43986 -46.15056 10293 ft 300 kts 83°
2026-05-04 03:36 -23.43819 -46.12745 10594 ft 311 kts 83°
2026-05-04 03:36 -23.43635 -46.10361 10834 ft 323 kts 82°
2026-05-04 03:36 -23.43430 -46.07887 11085 ft 334 kts 82°
2026-05-04 03:36 -23.43219 -46.05322 11344 ft 345 kts 83°
2026-05-04 03:37 -23.42999 -46.02660 11582 ft 356 kts 83°
2026-05-04 03:37 -23.42783 -45.99952 11851 ft 365 kts 83°
2026-05-04 03:37 -23.42558 -45.97176 12203 ft 370 kts 83°
2026-05-04 03:37 -23.42332 -45.94363 12561 ft 375 kts 83°
2026-05-04 03:38 -23.42103 -45.91571 12660 ft 375 kts 83°
2026-05-04 03:38 -23.41865 -45.88712 12954 ft 381 kts 83°
2026-05-04 03:38 -23.41614 -45.85819 13358 ft 384 kts 83°
2026-05-04 03:38 -23.41360 -45.82867 13727 ft 387 kts 83°
2026-05-04 03:39 -23.41112 -45.79942 14079 ft 391 kts 83°
2026-05-04 03:39 -23.40867 -45.77000 14395 ft 395 kts 83°
2026-05-04 03:39 -23.40617 -45.73977 14716 ft 398 kts 83°
2026-05-04 03:39 -23.40370 -45.70982 15057 ft 400 kts 83°
2026-05-04 03:40 -23.40119 -45.67938 15365 ft 403 kts 83°
2026-05-04 03:40 -23.39869 -45.64901 15700 ft 406 kts 83°
2026-05-04 03:40 -23.39611 -45.61834 16055 ft 408 kts 83°
2026-05-04 03:40 -23.39347 -45.58735 16388 ft 411 kts 83°
2026-05-04 03:41 -23.39087 -45.55627 16721 ft 414 kts 83°
2026-05-04 03:41 -23.38826 -45.52488 17054 ft 417 kts 83°
2026-05-04 03:41 -23.38400 -45.49362 17399 ft 419 kts 78°
2026-05-04 03:41 -23.37801 -45.46241 17728 ft 423 kts 75°
2026-05-04 03:42 -23.37119 -45.43166 18050 ft 425 kts 74°
2026-05-04 03:42 -23.36383 -45.39999 18386 ft 428 kts 74°
2026-05-04 03:42 -23.35658 -45.36852 18684 ft 431 kts 75°
2026-05-04 03:42 -23.34950 -45.33672 18978 ft 433 kts 75°
2026-05-04 03:43 -23.34264 -45.30520 19252 ft 436 kts 76°
2026-05-04 03:43 -23.33586 -45.27287 19539 ft 438 kts 76°
2026-05-04 03:43 -23.32917 -45.24058 19807 ft 441 kts 76°
2026-05-04 03:43 -23.32228 -45.20778 20048 ft 445 kts 76°
2026-05-04 03:44 -23.31532 -45.17499 20353 ft 446 kts 76°
2026-05-04 03:44 -23.30822 -45.14196 20618 ft 449 kts 76°
2026-05-04 03:44 -23.30108 -45.10888 20873 ft 452 kts 76°
2026-05-04 03:44 -23.29388 -45.07558 21136 ft 454 kts 76°
2026-05-04 03:45 -23.28660 -45.04194 21405 ft 457 kts 76°
2026-05-04 03:45 -23.27931 -45.00816 21677 ft 459 kts 76°
2026-05-04 03:45 -23.27198 -44.97428 22006 ft 462 kts 76°
2026-05-04 03:45 -23.26456 -44.94013 22296 ft 466 kts 76°
2026-05-04 03:46 -23.25707 -44.90574 22557 ft 468 kts 76°
2026-05-04 03:46 -23.24960 -44.87140 22833 ft 470 kts 76°
2026-05-04 03:46 -23.24202 -44.83654 23062 ft 473 kts 75°
2026-05-04 03:46 -23.23446 -44.80180 23286 ft 475 kts 76°
2026-05-04 03:47 -23.22684 -44.76678 23523 ft 477 kts 76°
2026-05-04 03:47 -23.21913 -44.73144 23761 ft 479 kts 75°
2026-05-04 03:47 -23.21149 -44.69645 23951 ft 482 kts 75°
2026-05-04 03:47 -23.20373 -44.66091 24151 ft 484 kts 75°
2026-05-04 03:48 -23.19589 -44.62510 24355 ft 486 kts 75°
2026-05-04 03:48 -23.18803 -44.58937 24558 ft 487 kts 75°
2026-05-04 03:48 -23.18014 -44.55350 24747 ft 489 kts 75°
2026-05-04 03:48 -23.17224 -44.51755 24943 ft 491 kts 75°
2026-05-04 03:49 -23.16424 -44.48124 25130 ft 493 kts 75°
2026-05-04 03:49 -23.15624 -44.44496 25326 ft 495 kts 75°
2026-05-04 03:49 -23.14824 -44.40868 25517 ft 497 kts 75°
2026-05-04 03:49 -23.14017 -44.37208 25710 ft 498 kts 75°
2026-05-04 03:50 -23.13207 -44.33538 25901 ft 500 kts 75°
2026-05-04 03:50 -23.12392 -44.29856 26120 ft 502 kts 75°
2026-05-04 03:50 -23.11575 -44.26163 26292 ft 504 kts 74°
2026-05-04 03:50 -23.10752 -44.22453 26509 ft 506 kts 75°
2026-05-04 03:51 -23.09927 -44.18736 26720 ft 508 kts 74°
2026-05-04 03:51 -23.09098 -44.15002 26906 ft 510 kts 74°
2026-05-04 03:51 -23.08261 -44.11243 27114 ft 511 kts 74°
2026-05-04 03:51 -23.07423 -44.07492 27302 ft 513 kts 74°
2026-05-04 03:52 -23.06579 -44.03722 27492 ft 515 kts 74°
2026-05-04 03:52 -23.05739 -43.99964 27679 ft 517 kts 74°
2026-05-04 03:52 -23.04892 -43.96173 27898 ft 519 kts 73°
2026-05-04 03:52 -23.04041 -43.92367 28095 ft 521 kts 74°
2026-05-04 03:53 -23.03183 -43.88540 28287 ft 523 kts 73°
2026-05-04 03:53 -23.02318 -43.84681 28488 ft 525 kts 73°
2026-05-04 03:53 -23.01455 -43.80835 28694 ft 527 kts 73°
2026-05-04 03:53 -23.00596 -43.76946 28874 ft 530 kts 75°
2026-05-04 03:54 -23.00112 -43.72983 29041 ft 533 kts 86°
2026-05-04 03:54 -23.00280 -43.68969 29250 ft 534 kts 99°
2026-05-04 03:54 -23.01148 -43.65043 29457 ft 533 kts 109°
2026-05-04 03:54 -23.02313 -43.61274 29671 ft 534 kts 111°
2026-05-04 03:55 -23.03297 -43.58351 29819 ft 535 kts 112°
2026-05-04 03:55 -23.04618 -43.54578 30028 ft 537 kts 113°
2026-05-04 03:55 -23.05963 -43.50785 30214 ft 540 kts 113°
2026-05-04 03:55 -23.07293 -43.47012 30393 ft 542 kts 112°
2026-05-04 03:56 -23.08630 -43.43136 30587 ft 544 kts 111°
2026-05-04 03:56 -23.09922 -43.39246 30768 ft 546 kts 110°
2026-05-04 03:56 -23.11187 -43.35363 30948 ft 548 kts 110°
2026-05-04 03:56 -23.12466 -43.31469 31135 ft 549 kts 110°
2026-05-04 03:57 -23.13778 -43.27544 31350 ft 551 kts 111°
2026-05-04 03:57 -23.15094 -43.23647 31513 ft 553 kts 110°
2026-05-04 03:57 -23.16432 -43.19708 31707 ft 554 kts 111°
2026-05-04 03:57 -23.17783 -43.15788 31887 ft 555 kts 112°
2026-05-04 03:58 -23.20565 -43.07931 32255 ft 558 kts 112°
2026-05-04 03:58 -23.21954 -43.03994 32426 ft 560 kts 112°
2026-05-04 03:58 -23.23340 -43.00021 32597 ft 562 kts 112°
2026-05-04 03:59 -23.24716 -42.96024 32784 ft 564 kts 112°
2026-05-04 03:59 -23.26075 -42.92038 32951 ft 565 kts 111°
2026-05-04 03:59 -23.27439 -42.88013 33130 ft 567 kts 111°
2026-05-04 03:59 -23.28798 -42.83985 33301 ft 568 kts 111°
2026-05-04 04:00 -23.30161 -42.79936 33466 ft 570 kts 111°
2026-05-04 04:00 -23.31524 -42.75880 33629 ft 571 kts 111°
2026-05-04 04:00 -23.32889 -42.71821 33806 ft 573 kts 111°
2026-05-04 04:00 -23.34256 -42.67761 34018 ft 573 kts 111°
2026-05-04 04:01 -23.35613 -42.63727 34265 ft 573 kts 111°
2026-05-04 04:01 -23.36998 -42.59606 34481 ft 573 kts 111°
2026-05-04 04:01 -23.38348 -42.55588 34667 ft 573 kts 111°
2026-05-04 04:01 -23.39735 -42.51461 34878 ft 572 kts 111°
2026-05-04 04:02 -23.41098 -42.47400 35091 ft 572 kts 111°
2026-05-04 04:02 -23.42444 -42.43384 35287 ft 572 kts 111°
2026-05-04 04:02 -23.43804 -42.39319 35503 ft 572 kts 111°
2026-05-04 04:02 -23.45168 -42.35238 35705 ft 572 kts 111°
2026-05-04 04:03 -23.46524 -42.31177 35913 ft 572 kts 111°
2026-05-04 04:03 -23.47880 -42.27104 36091 ft 572 kts 111°
2026-05-04 04:03 -23.49232 -42.23021 36282 ft 572 kts 111°
2026-05-04 04:03 -23.50578 -42.18940 36504 ft 572 kts 110°
2026-05-04 04:04 -23.51881 -42.14854 36681 ft 572 kts 107°
2026-05-04 04:04 -23.52713 -42.12120 36751 ft 573 kts 107°
2026-05-04 04:04 -23.53957 -42.08006 36853 ft 573 kts 107°
2026-05-04 04:04 -23.55664 -42.02506 37024 ft 573 kts 108°
2026-05-04 04:05 -23.56533 -41.99783 37130 ft 572 kts 108°
2026-05-04 04:05 -23.57860 -41.95701 37286 ft 572 kts 108°
2026-05-04 04:05 -23.59208 -41.91609 37404 ft 571 kts 109°
2026-05-04 04:05 -23.60555 -41.87550 37531 ft 571 kts 109°
2026-05-04 04:06 -23.61914 -41.83464 37661 ft 571 kts 109°
2026-05-04 04:06 -23.63264 -41.79406 37790 ft 571 kts 109°
2026-05-04 04:06 -23.64617 -41.75333 37933 ft 571 kts 109°
2026-05-04 04:06 -23.65967 -41.71251 38039 ft 571 kts 109°
2026-05-04 04:07 -23.67313 -41.67175 38153 ft 571 kts 109°
2026-05-04 04:07 -23.68650 -41.63114 38292 ft 570 kts 108°
2026-05-04 04:07 -23.69987 -41.59034 38400 ft 570 kts 108°
2026-05-04 04:07 -23.71322 -41.54964 38508 ft 570 kts 109°
2026-05-04 04:08 -23.72658 -41.50890 38617 ft 570 kts 108°
2026-05-04 04:08 -23.73991 -41.46800 38724 ft 570 kts 108°
2026-05-04 04:08 -23.76646 -41.38644 38896 ft 570 kts 108°
2026-05-04 04:09 -23.79305 -41.30497 39072 ft 570 kts 108°
2026-05-04 04:09 -23.81976 -41.22334 39155 ft 572 kts 108°
2026-05-04 04:10 -23.84636 -41.14129 39199 ft 573 kts 108°
2026-05-04 04:10 -23.87277 -41.05965 39206 ft 573 kts 108°
2026-05-04 04:11 -23.89944 -40.97715 39199 ft 573 kts 108°
2026-05-04 04:11 -23.92605 -40.89495 39195 ft 573 kts 108°
2026-05-04 04:12 -23.95243 -40.81346 39197 ft 573 kts 108°
2026-05-04 04:12 -23.97909 -40.73141 39197 ft 572 kts 109°
2026-05-04 04:13 -24.00612 -40.64902 39198 ft 572 kts 109°
2026-05-04 04:13 -24.03268 -40.56700 39198 ft 572 kts 109°
2026-05-04 04:14 -24.05872 -40.48547 39195 ft 572 kts 108°
2026-05-04 04:14 -24.08484 -40.40312 39195 ft 572 kts 108°
2026-05-04 04:15 -24.11102 -40.32102 39195 ft 572 kts 108°
2026-05-04 04:15 -24.13731 -40.23872 39192 ft 572 kts 110°
2026-05-04 04:16 -24.16715 -40.15809 39193 ft 572 kts 112°
2026-05-04 04:16 -24.19831 -40.07798 39193 ft 571 kts 112°
2026-05-04 04:17 -24.22898 -39.99773 39194 ft 571 kts 112°
2026-05-04 04:17 -24.25930 -39.91729 39193 ft 571 kts 111°
2026-05-04 04:18 -24.28949 -39.83670 39194 ft 571 kts 111°
2026-05-04 04:18 -24.31957 -39.75630 39191 ft 571 kts 111°
2026-05-04 04:19 -24.34975 -39.67561 39194 ft 571 kts 111°
2026-05-04 04:19 -24.37990 -39.59493 39195 ft 571 kts 111°
2026-05-04 04:20 -24.41005 -39.51445 39195 ft 571 kts 111°
2026-05-04 04:20 -24.44018 -39.43368 39191 ft 571 kts 112°
2026-05-04 04:21 -24.47065 -39.35321 39189 ft 571 kts 112°
2026-05-04 04:21 -24.50069 -39.27266 39192 ft 571 kts 112°
2026-05-04 04:22 -24.53063 -39.19192 39193 ft 571 kts 112°
2026-05-04 04:22 -24.56056 -39.11104 39193 ft 571 kts 112°
2026-05-04 04:23 -24.59046 -39.03022 39190 ft 571 kts 112°
2026-05-04 04:23 -24.62031 -38.94952 39192 ft 571 kts 112°
2026-05-04 04:24 -24.65001 -38.86870 39187 ft 571 kts 112°
2026-05-04 04:24 -24.67965 -38.78776 39191 ft 571 kts 112°
2026-05-04 04:25 -24.70902 -38.70659 39181 ft 570 kts 111°
2026-05-04 04:25 -24.73817 -38.62537 39217 ft 572 kts 111°
2026-05-04 04:26 -24.76777 -38.54374 39186 ft 576 kts 112°
2026-05-04 04:26 -24.79753 -38.46188 39184 ft 576 kts 112°
2026-05-04 04:27 -24.82706 -38.37993 39187 ft 576 kts 111°
2026-05-04 04:27 -24.85642 -38.29840 39186 ft 576 kts 111°
2026-05-04 04:28 -24.88590 -38.21581 39187 ft 577 kts 111°
2026-05-04 04:28 -24.91514 -38.13342 39185 ft 577 kts 111°
2026-05-04 04:29 -24.94428 -38.05151 39185 ft 577 kts 111°
2026-05-04 04:29 -24.97364 -37.96926 39181 ft 577 kts 111°
2026-05-04 04:30 -25.00304 -37.88685 39180 ft 578 kts 111°
2026-05-04 04:30 -25.03236 -37.80443 39185 ft 578 kts 111°
2026-05-04 04:31 -25.06148 -37.72192 39179 ft 578 kts 110°
2026-05-04 04:31 -25.09046 -37.63909 39177 ft 578 kts 110°
2026-05-04 04:32 -25.11941 -37.55629 39178 ft 579 kts 110°
2026-05-04 04:32 -25.14839 -37.47345 39183 ft 579 kts 109°
2026-05-04 04:33 -25.17728 -37.39052 39166 ft 579 kts 109°
2026-05-04 04:33 -25.20625 -37.30741 39180 ft 579 kts 109°
2026-05-04 04:34 -25.23522 -37.22451 39171 ft 580 kts 109°
2026-05-04 04:34 -25.26432 -37.14140 39190 ft 580 kts 109°
2026-05-04 04:35 -25.29340 -37.05834 39185 ft 580 kts 109°
2026-05-04 04:35 -25.32244 -36.97530 39176 ft 580 kts 109°
2026-05-04 04:36 -25.35160 -36.89193 39175 ft 580 kts 109°
2026-05-04 04:36 -25.38053 -36.80882 39178 ft 580 kts 109°
2026-05-04 04:37 -25.43826 -36.64194 39181 ft 581 kts 109°
2026-05-04 04:38 -25.46714 -36.55835 39176 ft 581 kts 109°
2026-05-04 04:38 -25.49594 -36.47487 39175 ft 581 kts 109°
2026-05-04 04:39 -25.52468 -36.39133 39176 ft 581 kts 109°
2026-05-04 04:39 -25.55346 -36.30747 39178 ft 581 kts 109°
2026-05-04 04:40 -25.58207 -36.22394 39177 ft 581 kts 109°
2026-05-04 04:40 -25.61070 -36.14018 39176 ft 582 kts 109°
2026-05-04 04:41 -25.63937 -36.05619 39174 ft 582 kts 108°
2026-05-04 04:41 -25.66791 -35.97231 39175 ft 582 kts 108°
2026-05-04 04:42 -25.69623 -35.88887 39173 ft 582 kts 108°
2026-05-04 04:42 -25.72489 -35.80432 39177 ft 582 kts 108°
2026-05-04 04:43 -25.75310 -35.72089 39173 ft 582 kts 108°
2026-05-04 04:43 -25.78150 -35.63674 39174 ft 583 kts 108°
2026-05-04 04:44 -25.80985 -35.55255 39174 ft 583 kts 108°
2026-05-04 04:44 -25.83819 -35.46813 39170 ft 583 kts 108°
2026-05-04 04:45 -25.86642 -35.38389 39171 ft 583 kts 108°
2026-05-04 04:47 -25.96515 -35.08824 39168 ft 583 kts 108°
2026-05-04 04:47 -25.99265 -35.00338 39180 ft 583 kts 103°
2026-05-04 04:48 -26.01328 -34.91660 39164 ft 583 kts 100°
2026-05-04 04:49 -26.05752 -34.71178 39164 ft 584 kts 99°
2026-05-04 04:49 -26.07947 -34.60967 39160 ft 584 kts 99°
2026-05-04 04:50 -26.09847 -34.52166 39163 ft 585 kts 100°
2026-05-04 04:50 -26.11439 -34.44795 39162 ft 585 kts 100°
2026-05-04 04:51 -26.13323 -34.36014 39162 ft 585 kts 99°
2026-05-04 04:51 -26.15203 -34.27212 39163 ft 585 kts 99°
2026-05-04 04:52 -26.17085 -34.18389 39158 ft 585 kts 99°
2026-05-04 04:52 -26.18965 -34.09585 39160 ft 585 kts 99°
2026-05-04 04:53 -26.20821 -34.00838 39160 ft 585 kts 99°
2026-05-04 04:53 -26.22680 -33.92013 39158 ft 585 kts 99°
2026-05-04 04:54 -26.24540 -33.83189 39160 ft 585 kts 99°
2026-05-04 04:54 -26.26393 -33.74347 39154 ft 585 kts 99°
2026-05-04 04:55 -26.28242 -33.65525 39148 ft 585 kts 99°
2026-05-04 04:55 -26.30086 -33.56691 39147 ft 585 kts 99°
2026-05-04 04:56 -26.31924 -33.47838 39152 ft 585 kts 99°
2026-05-04 04:56 -26.33752 -33.38988 39146 ft 586 kts 99°
2026-05-04 04:57 -26.35576 -33.30145 39147 ft 586 kts 99°
2026-05-04 04:57 -26.37400 -33.21305 39147 ft 586 kts 99°
2026-05-04 04:58 -26.39223 -33.12431 39145 ft 586 kts 99°
2026-05-04 04:58 -26.41022 -33.03628 39145 ft 586 kts 99°
2026-05-04 04:59 -26.42827 -32.94770 39142 ft 586 kts 99°
2026-05-04 04:59 -26.44627 -32.85890 39142 ft 586 kts 99°
2026-05-04 05:00 -26.46417 -32.77023 39138 ft 586 kts 99°
2026-05-04 05:01 -26.49101 -32.63713 39138 ft 586 kts 99°
2026-05-04 05:01 -26.50891 -32.54826 39142 ft 586 kts 99°
2026-05-04 05:02 -26.52671 -32.45951 39138 ft 586 kts 99°
2026-05-04 05:02 -26.54446 -32.37057 39140 ft 586 kts 98°
2026-05-04 05:03 -26.56208 -32.28162 39135 ft 587 kts 98°
2026-05-04 05:04 -26.59718 -32.10361 39135 ft 587 kts 98°
2026-05-04 05:04 -26.61468 -32.01453 39135 ft 587 kts 98°
2026-05-04 05:06 -26.68412 -31.65813 39129 ft 587 kts 98°
2026-05-04 05:07 -26.70137 -31.56899 39127 ft 587 kts 98°
2026-05-04 05:07 -26.71859 -31.47978 39127 ft 587 kts 98°
2026-05-04 05:09 -26.79512 -31.07813 39125 ft 588 kts 98°
2026-05-04 05:10 -26.81209 -30.98849 39123 ft 588 kts 98°
2026-05-04 05:10 -26.82884 -30.89917 39118 ft 588 kts 98°
2026-05-04 05:11 -26.84564 -30.80947 39120 ft 588 kts 98°
2026-05-04 05:11 -26.86242 -30.71986 39117 ft 588 kts 97°
2026-05-04 05:12 -26.87915 -30.63017 39117 ft 588 kts 97°
2026-05-04 05:12 -26.89576 -30.54051 39115 ft 588 kts 97°
2026-05-04 05:13 -26.91228 -30.45081 39117 ft 588 kts 97°
2026-05-04 05:13 -26.92878 -30.36111 39117 ft 588 kts 97°
2026-05-04 05:14 -26.94530 -30.27122 39113 ft 588 kts 97°
2026-05-04 05:14 -26.96176 -30.18150 39115 ft 588 kts 97°
2026-05-04 05:15 -26.97809 -30.09188 39115 ft 587 kts 97°
2026-05-04 05:15 -26.99433 -30.00208 39111 ft 587 kts 97°
2026-05-04 05:16 -27.01222 -29.91273 39110 ft 589 kts 100°
2026-05-04 05:16 -27.03246 -29.82387 39110 ft 588 kts 101°
2026-05-04 05:17 -27.05262 -29.73504 39108 ft 587 kts 100°
2026-05-04 05:17 -27.07223 -29.64616 39105 ft 587 kts 100°
2026-05-04 05:18 -27.09147 -29.55712 39107 ft 587 kts 99°
2026-05-04 05:18 -27.11057 -29.46813 39103 ft 587 kts 100°
2026-05-04 05:19 -27.12999 -29.37905 39104 ft 587 kts 101°
2026-05-04 05:19 -27.14944 -29.29019 39099 ft 586 kts 99°
2026-05-04 05:20 -27.16817 -29.20110 39100 ft 587 kts 99°
2026-05-04 05:20 -27.18690 -29.11183 39102 ft 587 kts 99°
2026-05-04 05:21 -27.20577 -29.02254 39099 ft 587 kts 99°
2026-05-04 05:21 -27.22471 -28.93332 39098 ft 587 kts 99°
2026-05-04 05:22 -27.24363 -28.84408 39093 ft 587 kts 99°
2026-05-04 05:22 -27.26242 -28.75482 39091 ft 587 kts 99°
2026-05-04 05:23 -27.28123 -28.66546 39095 ft 588 kts 99°
2026-05-04 05:23 -27.29988 -28.57599 39097 ft 588 kts 99°
2026-05-04 05:24 -27.31817 -28.48703 39091 ft 588 kts 98°
2026-05-04 05:24 -27.33659 -28.39745 39091 ft 588 kts 99°
2026-05-04 05:25 -27.35528 -28.30794 39088 ft 588 kts 99°
2026-05-04 05:25 -27.37384 -28.21823 39088 ft 587 kts 98°
2026-05-04 05:26 -27.39221 -28.12878 39085 ft 587 kts 99°
2026-05-04 05:26 -27.41059 -28.03922 39088 ft 587 kts 99°
2026-05-04 05:28 -27.48294 -27.68091 39082 ft 586 kts 98°
2026-05-04 05:29 -27.50093 -27.59135 39081 ft 586 kts 98°
2026-05-04 05:29 -27.51886 -27.50178 39081 ft 586 kts 98°
2026-05-04 05:31 -27.59033 -27.14297 39074 ft 585 kts 98°
2026-05-04 05:32 -27.60793 -27.05344 39075 ft 585 kts 97°
2026-05-04 05:33 -27.63418 -26.91969 39072 ft 585 kts 99°
2026-05-04 05:33 -27.65220 -26.83030 39072 ft 584 kts 98°
2026-05-04 05:34 -27.66687 -26.75529 39069 ft 584 kts 97°
2026-05-04 05:34 -27.68471 -26.66602 39071 ft 584 kts 98°
2026-05-04 05:35 -27.70206 -26.57640 39069 ft 583 kts 97°
2026-05-04 05:35 -27.71920 -26.48691 39067 ft 584 kts 98°
2026-05-04 05:36 -27.73653 -26.39748 39066 ft 583 kts 98°
2026-05-04 05:36 -27.75345 -26.30805 39063 ft 583 kts 97°
2026-05-04 05:37 -27.77002 -26.21888 39056 ft 583 kts 97°
2026-05-04 05:37 -27.78672 -26.12866 39059 ft 583 kts 97°
2026-05-04 05:38 -27.81245 -25.99510 39058 ft 582 kts 98°
2026-05-04 05:38 -27.82955 -25.90567 39055 ft 582 kts 97°
2026-05-04 05:39 -27.85383 -25.77090 39055 ft 582 kts 96°
2026-05-04 05:40 -27.87857 -25.63723 39053 ft 581 kts 97°
2026-05-04 05:40 -27.89550 -25.54793 39051 ft 581 kts 98°
2026-05-04 05:41 -27.91254 -25.45879 39053 ft 580 kts 97°
2026-05-04 05:41 -27.92887 -25.36899 39052 ft 579 kts 97°
2026-05-04 05:42 -27.94475 -25.28029 39051 ft 579 kts 96°
2026-05-04 05:42 -27.96034 -25.19108 39054 ft 579 kts 96°
2026-05-04 05:43 -27.97639 -25.10192 39052 ft 578 kts 97°
2026-05-04 05:45 -28.05086 -24.74815 39046 ft 576 kts 99°
2026-05-04 05:47 -28.12638 -24.39562 39044 ft 575 kts 99°
2026-05-04 05:47 -28.14518 -24.30772 39045 ft 575 kts 99°
2026-05-04 05:48 -28.16416 -24.21961 39046 ft 574 kts 99°
2026-05-04 05:48 -28.18322 -24.13173 39045 ft 574 kts 99°
2026-05-04 05:49 -28.20210 -24.04446 39042 ft 573 kts 99°
2026-05-04 05:49 -28.22094 -23.95610 39041 ft 573 kts 99°
2026-05-04 05:51 -28.29420 -23.60514 39033 ft 572 kts 99°
2026-05-04 05:52 -28.31261 -23.51752 39040 ft 572 kts 99°
2026-05-04 05:52 -28.33083 -23.42974 39031 ft 571 kts 98°
2026-05-04 05:54 -28.40297 -23.07806 39043 ft 571 kts 99°
2026-05-04 05:55 -28.42112 -22.99022 39045 ft 571 kts 99°
2026-05-04 05:55 -28.43908 -22.90241 39034 ft 571 kts 98°
2026-05-04 05:56 -28.45686 -22.81454 39042 ft 571 kts 99°
2026-05-04 05:56 -28.47494 -22.72667 39043 ft 571 kts 99°
2026-05-04 05:57 -28.49265 -22.63868 39037 ft 571 kts 98°
2026-05-04 05:57 -28.51012 -22.55072 39043 ft 571 kts 98°
2026-05-04 05:58 -28.52754 -22.46321 39048 ft 571 kts 98°
2026-05-04 05:58 -28.54533 -22.37524 39042 ft 571 kts 99°
2026-05-04 05:59 -28.56311 -22.28690 39043 ft 570 kts 99°
2026-05-04 05:59 -28.58039 -22.19945 39041 ft 570 kts 99°
2026-05-04 06:00 -28.59811 -22.11091 39042 ft 570 kts 99°
2026-05-04 06:00 -28.61544 -22.02299 39033 ft 569 kts 98°
2026-05-04 06:01 -28.63248 -21.93568 39041 ft 569 kts 100°
2026-05-04 06:03 -28.70049 -21.58424 39048 ft 568 kts 99°
2026-05-04 06:05 -28.77584 -21.18891 39048 ft 567 kts 98°
2026-05-04 06:06 -28.79222 -21.10103 39051 ft 567 kts 98°
2026-05-04 06:06 -28.80889 -21.01317 39053 ft 567 kts 99°
2026-05-04 06:07 -28.82561 -20.92555 39050 ft 567 kts 99°
2026-05-04 06:07 -28.84230 -20.83770 39047 ft 566 kts 98°
2026-05-04 06:08 -28.85855 -20.74973 39050 ft 566 kts 98°
2026-05-04 06:08 -28.87470 -20.66173 39049 ft 566 kts 98°
2026-05-04 06:09 -28.89100 -20.57377 39049 ft 566 kts 98°
2026-05-04 06:11 -28.95627 -20.22247 39047 ft 565 kts 98°
2026-05-04 06:13 -29.02325 -19.87203 39051 ft 564 kts 101°
2026-05-04 06:14 -29.09029 -19.56817 39058 ft 563 kts 101°
2026-05-04 06:15 -29.10912 -19.48151 39058 ft 562 kts 101°
2026-05-04 06:15 -29.12776 -19.39457 39056 ft 562 kts 101°
2026-05-04 06:16 -29.14647 -19.30780 39060 ft 562 kts 101°
2026-05-04 06:16 -29.16538 -19.22089 39061 ft 562 kts 101°
2026-05-04 06:17 -29.18072 -19.14871 39063 ft 562 kts 101°
2026-05-04 06:17 -29.19906 -19.06194 39068 ft 562 kts 101°
2026-05-04 06:18 -29.21747 -18.97488 39068 ft 562 kts 101°
2026-05-04 06:20 -29.29135 -18.62865 39073 ft 560 kts 100°
2026-05-04 06:21 -29.33623 -18.41197 39078 ft 559 kts 100°
2026-05-04 06:22 -29.35415 -18.32519 39078 ft 558 kts 100°
2026-05-04 06:25 -29.47706 -17.71936 39087 ft 556 kts 99°
2026-05-04 06:26 -29.49439 -17.63288 39090 ft 556 kts 99°
2026-05-04 06:26 -29.51161 -17.54660 39091 ft 555 kts 99°
2026-05-04 06:27 -29.55497 -17.33073 39095 ft 554 kts 99°
2026-05-04 06:28 -29.57191 -17.24449 39098 ft 554 kts 99°
2026-05-04 06:28 -29.58861 -17.15815 39099 ft 553 kts 99°
2026-05-04 06:29 -29.60529 -17.07207 39105 ft 553 kts 99°
2026-05-04 06:29 -29.62209 -16.98575 39108 ft 552 kts 99°
2026-05-04 06:30 -29.63890 -16.89960 39108 ft 552 kts 99°
2026-05-04 06:30 -29.65563 -16.81349 39111 ft 552 kts 99°
2026-05-04 06:31 -29.67228 -16.72741 39115 ft 551 kts 98°
2026-05-04 06:31 -29.68890 -16.64144 39116 ft 551 kts 99°
2026-05-04 06:33 -29.75463 -16.29829 39124 ft 549 kts 98°
2026-05-04 06:34 -29.77094 -16.21240 39126 ft 549 kts 98°
2026-05-04 06:34 -29.78718 -16.12652 39128 ft 549 kts 98°
2026-05-04 06:36 -29.85144 -15.78347 39135 ft 548 kts 98°
2026-05-04 06:37 -29.86741 -15.69754 39135 ft 547 kts 98°
2026-05-04 06:37 -29.88324 -15.61179 39136 ft 547 kts 98°
2026-05-04 06:38 -29.89902 -15.52601 39135 ft 547 kts 98°
2026-05-04 06:40 -29.96156 -15.18289 39146 ft 546 kts 98°
2026-05-04 06:40 -29.97705 -15.09704 39148 ft 546 kts 99°
2026-05-04 06:41 -29.99184 -15.01130 39160 ft 544 kts 94°
2026-05-04 06:41 -29.99649 -14.92479 39146 ft 542 kts 88°
2026-05-04 06:42 -29.99810 -14.83757 39152 ft 543 kts 86°
2026-05-04 06:44 -30.00329 -14.49016 39159 ft 541 kts 87°
2026-05-04 06:44 -30.00462 -14.40339 39162 ft 541 kts 87°
2026-05-04 06:45 -30.00579 -14.31659 39164 ft 541 kts 87°
2026-05-04 06:45 -30.00701 -14.22927 39166 ft 541 kts 87°
2026-05-04 06:46 -30.00817 -14.14253 39169 ft 541 kts 87°
2026-05-04 06:46 -30.00944 -14.05585 39174 ft 541 kts 90°
2026-05-04 06:48 -30.01363 -13.71037 39183 ft 537 kts 88°
2026-05-04 06:50 -30.01658 -13.36690 39193 ft 533 kts 87°
2026-05-04 06:51 -30.01713 -13.28156 39199 ft 532 kts 88°
2026-05-04 06:51 -30.01775 -13.19683 39193 ft 531 kts 88°
2026-05-04 06:52 -30.01823 -13.11118 39196 ft 530 kts 88°
2026-05-04 06:52 -30.01894 -13.02605 39197 ft 530 kts 88°
2026-05-04 06:53 -30.01943 -12.94127 39203 ft 529 kts 87°
2026-05-04 06:53 -30.01956 -12.85685 39207 ft 529 kts 87°
2026-05-04 06:54 -30.01995 -12.77203 39206 ft 528 kts 88°
2026-05-04 06:54 -30.02059 -12.68689 39209 ft 527 kts 89°
2026-05-04 06:55 -30.02100 -12.60293 39210 ft 526 kts 88°
2026-05-04 06:55 -30.02113 -12.51797 39213 ft 526 kts 88°
2026-05-04 06:57 -30.02089 -12.18133 39226 ft 524 kts 88°
2026-05-04 06:58 -30.02050 -12.09743 39223 ft 523 kts 88°
2026-05-04 06:58 -30.02025 -12.01354 39223 ft 523 kts 89°
2026-05-04 06:59 -30.01991 -11.92959 39225 ft 522 kts 88°
2026-05-04 06:59 -30.01954 -11.84638 39230 ft 522 kts 89°
2026-05-04 07:01 -30.01754 -11.52533 39239 ft 521 kts 88°
2026-05-04 07:02 -30.01689 -11.44184 39241 ft 521 kts 89°
2026-05-04 07:02 -30.01623 -11.35826 39244 ft 520 kts 88°
2026-05-04 07:03 -30.01555 -11.27526 39244 ft 521 kts 89°
2026-05-04 07:03 -30.01473 -11.19179 39246 ft 521 kts 88°
2026-05-04 07:04 -30.01382 -11.10836 39246 ft 520 kts 88°
2026-05-04 07:04 -30.01287 -11.02489 39248 ft 520 kts 89°
2026-05-04 07:05 -30.01206 -10.94161 39253 ft 520 kts 89°
2026-05-04 07:05 -30.01128 -10.85807 39252 ft 520 kts 89°
2026-05-04 07:06 -30.00930 -10.73297 39254 ft 520 kts 88°
2026-05-04 07:07 -30.00794 -10.64923 39257 ft 519 kts 88°
2026-05-04 07:09 -30.00330 -10.31690 39260 ft 518 kts 88°
2026-05-04 07:09 -30.00189 -10.23381 39262 ft 518 kts 88°
2026-05-04 07:10 -30.00041 -10.15070 39266 ft 518 kts 88°
2026-05-04 07:12 -30.00042 -9.81858 39273 ft 517 kts 91°
2026-05-04 07:12 -30.00222 -9.73591 39272 ft 516 kts 91°
2026-05-04 07:13 -30.00371 -9.65297 39278 ft 516 kts 91°
2026-05-04 07:13 -30.00516 -9.57018 39274 ft 516 kts 91°
2026-05-04 07:14 -30.00838 -9.36350 39274 ft 515 kts 91°
2026-05-04 07:15 -30.00948 -9.28094 39281 ft 515 kts 90°
2026-05-04 07:15 -30.01049 -9.19837 39281 ft 515 kts 91°
2026-05-04 07:16 -30.01149 -9.11577 39282 ft 515 kts 91°
2026-05-04 07:16 -30.01247 -9.03331 39286 ft 514 kts 91°
2026-05-04 07:17 -30.01350 -8.95068 39289 ft 514 kts 91°
2026-05-04 07:17 -30.01442 -8.86814 39284 ft 514 kts 91°
2026-05-04 07:18 -30.01522 -8.78587 39293 ft 514 kts 91°
2026-05-04 07:18 -30.01608 -8.70242 39293 ft 514 kts 91°
2026-05-04 07:19 -30.01684 -8.62000 39293 ft 513 kts 91°
2026-05-04 07:19 -30.01747 -8.53756 39292 ft 513 kts 91°
2026-05-04 07:20 -30.01801 -8.45523 39295 ft 513 kts 91°
2026-05-04 07:20 -30.01856 -8.37285 39296 ft 513 kts 91°
2026-05-04 07:22 -30.02039 -8.04370 39304 ft 512 kts 91°
2026-05-04 07:23 -30.02073 -7.96147 39300 ft 512 kts 91°
2026-05-04 07:23 -30.02111 -7.87919 39293 ft 512 kts 91°
2026-05-04 07:24 -30.02147 -7.79701 39291 ft 512 kts 91°
2026-05-04 07:24 -30.02161 -7.71476 39303 ft 512 kts 91°
2026-05-04 07:26 -30.02159 -7.38659 39307 ft 512 kts 91°
2026-05-04 07:27 -30.02162 -7.30442 39308 ft 512 kts 91°
2026-05-04 07:27 -30.02160 -7.22244 39305 ft 511 kts 91°
2026-05-04 07:28 -30.02147 -7.14029 39316 ft 511 kts 91°
2026-05-04 07:28 -30.02121 -7.05828 39309 ft 511 kts 91°
2026-05-04 07:29 -30.02081 -6.97626 39310 ft 511 kts 91°
2026-05-04 07:29 -30.02040 -6.89421 39308 ft 511 kts 91°
2026-05-04 07:30 -30.02004 -6.81228 39309 ft 511 kts 91°
2026-05-04 07:30 -30.01966 -6.73040 39307 ft 510 kts 91°
2026-05-04 07:31 -30.01918 -6.64857 39306 ft 510 kts 91°
2026-05-04 07:33 -30.01670 -6.32177 39312 ft 510 kts 91°
2026-05-04 07:33 -30.01589 -6.24036 39310 ft 510 kts 91°
2026-05-04 07:34 -30.01502 -6.15846 39307 ft 509 kts 91°
2026-05-04 07:34 -30.01412 -6.07687 39313 ft 509 kts 91°
2026-05-04 07:35 -30.01319 -5.99515 39312 ft 509 kts 91°
2026-05-04 07:35 -30.01229 -5.91349 39310 ft 509 kts 91°
2026-05-04 07:36 -30.01134 -5.83173 39315 ft 509 kts 91°
2026-05-04 07:38 -30.00707 -5.51865 39313 ft 509 kts 91°
2026-05-04 07:38 -30.00577 -5.43706 39312 ft 509 kts 91°
2026-05-04 07:39 -30.00450 -5.35553 39316 ft 508 kts 91°
2026-05-04 07:39 -30.00316 -5.27399 39316 ft 508 kts 91°
2026-05-04 07:40 -30.00168 -5.19242 39315 ft 508 kts 91°
2026-05-04 07:40 -30.00019 -5.11103 39311 ft 508 kts 91°
2026-05-04 07:41 -29.99868 -5.02949 39310 ft 508 kts 91°
2026-05-04 07:41 -29.99782 -4.94821 39314 ft 507 kts 94°
2026-05-04 07:42 -29.99969 -4.86710 39317 ft 505 kts 95°
2026-05-04 07:42 -30.00190 -4.78611 39311 ft 505 kts 94°
2026-05-04 07:43 -30.00360 -4.70511 39310 ft 505 kts 94°
2026-05-04 07:43 -30.00491 -4.62429 39308 ft 505 kts 94°
2026-05-04 07:44 -30.00605 -4.54366 39309 ft 505 kts 94°
2026-05-04 07:44 -30.00725 -4.46273 39308 ft 505 kts 94°
2026-05-04 07:45 -30.00840 -4.38161 39311 ft 505 kts 94°
2026-05-04 07:45 -30.00952 -4.30079 39311 ft 504 kts 94°
2026-05-04 07:46 -30.01062 -4.21980 39309 ft 504 kts 94°
2026-05-04 07:46 -30.01166 -4.13893 39311 ft 504 kts 94°
2026-05-04 07:47 -30.01269 -4.05807 39308 ft 504 kts 94°
2026-05-04 07:49 -30.01619 -3.73453 39306 ft 504 kts 94°
2026-05-04 07:49 -30.01686 -3.65371 39308 ft 504 kts 94°
2026-05-04 07:50 -30.01744 -3.57273 39305 ft 504 kts 94°
2026-05-04 07:50 -30.01804 -3.49251 39306 ft 504 kts 94°
2026-05-04 07:51 -30.01868 -3.41157 39306 ft 504 kts 94°
2026-05-04 07:51 -30.01922 -3.33055 39305 ft 504 kts 94°
2026-05-04 07:52 -30.01971 -3.24967 39304 ft 504 kts 94°
2026-05-04 07:52 -30.02018 -3.16863 39305 ft 504 kts 94°
2026-05-04 07:54 -30.02128 -2.84490 39304 ft 504 kts 94°
2026-05-04 07:55 -30.02147 -2.76400 39303 ft 504 kts 94°
2026-05-04 07:55 -30.02162 -2.68300 39303 ft 504 kts 94°
2026-05-04 07:56 -30.02173 -2.60206 39302 ft 504 kts 94°
2026-05-04 07:56 -30.02183 -2.52132 39306 ft 504 kts 94°
2026-05-04 07:57 -30.02189 -2.44042 39303 ft 504 kts 94°
2026-05-04 07:57 -30.02184 -2.35973 39301 ft 503 kts 94°
2026-05-04 07:58 -30.02167 -2.27886 39301 ft 503 kts 94°
2026-05-04 07:58 -30.02143 -2.19823 39302 ft 503 kts 94°
2026-05-04 07:59 -30.02119 -2.11759 39300 ft 503 kts 94°
2026-05-04 07:59 -30.02093 -2.03672 39295 ft 503 kts 94°
2026-05-04 08:00 -30.02065 -1.95612 39296 ft 502 kts 94°
2026-05-04 08:02 -30.01904 -1.63457 39295 ft 502 kts 94°
2026-05-04 08:02 -30.01843 -1.55397 39293 ft 501 kts 94°
2026-05-04 08:03 -30.01779 -1.47361 39301 ft 501 kts 94°
2026-05-04 08:03 -30.01711 -1.39305 39299 ft 501 kts 94°
2026-05-04 08:04 -30.01642 -1.31269 39291 ft 500 kts 94°
2026-05-04 08:04 -30.01569 -1.23265 39297 ft 500 kts 94°
2026-05-04 08:05 -30.01492 -1.15170 39291 ft 500 kts 95°
2026-05-04 08:05 -30.01410 -1.07153 39293 ft 500 kts 94°
2026-05-04 08:06 -30.01320 -0.99188 39297 ft 500 kts 95°
2026-05-04 08:06 -30.01231 -0.91156 39293 ft 500 kts 95°
2026-05-04 08:08 -30.00804 -0.59055 39291 ft 501 kts 95°
2026-05-04 08:11 -30.00236 -0.22869 39290 ft 501 kts 95°
2026-05-04 08:11 -30.00030 -0.10858 39287 ft 502 kts 95°
2026-05-04 08:12 -29.99891 -0.02808 39289 ft 502 kts 95°
2026-05-04 08:12 -29.99817 0.05230 39289 ft 500 kts 97°
2026-05-04 08:13 -29.99994 0.13240 39290 ft 498 kts 98°
2026-05-04 08:13 -30.00195 0.21210 39288 ft 498 kts 98°
2026-05-04 08:14 -30.00355 0.29201 39286 ft 498 kts 97°
2026-05-04 08:16 -30.00848 0.61153 39293 ft 497 kts 97°
2026-05-04 08:16 -30.00958 0.69108 39279 ft 497 kts 97°
2026-05-04 08:17 -30.01060 0.77087 39281 ft 497 kts 97°
2026-05-04 08:17 -30.01163 0.85064 39282 ft 497 kts 97°
2026-05-04 08:19 -30.01528 1.16918 39283 ft 496 kts 97°
2026-05-04 08:20 -30.01605 1.24879 39281 ft 496 kts 97°
2026-05-04 08:20 -30.01677 1.32784 39282 ft 496 kts 97°
2026-05-04 08:21 -30.01744 1.40734 39282 ft 496 kts 97°
2026-05-04 08:21 -30.01807 1.48689 39280 ft 496 kts 97°
2026-05-04 08:22 -30.01868 1.56646 39280 ft 496 kts 97°
2026-05-04 08:24 -30.02045 1.87166 39276 ft 496 kts 97°
2026-05-04 08:24 -30.02072 1.95117 39275 ft 496 kts 97°
2026-05-04 08:25 -30.02106 2.03058 39275 ft 495 kts 97°
2026-05-04 08:25 -30.02137 2.11002 39271 ft 496 kts 97°
2026-05-04 08:27 -30.02198 2.42839 39274 ft 496 kts 97°
2026-05-04 08:28 -30.02201 2.50798 39272 ft 496 kts 97°
2026-05-04 08:28 -30.02197 2.58753 39268 ft 497 kts 97°
2026-05-04 08:29 -30.02192 2.66731 39275 ft 497 kts 97°
2026-05-04 08:31 -30.02108 2.98565 39265 ft 497 kts 97°
2026-05-04 08:33 -30.01950 3.30472 39259 ft 498 kts 97°
2026-05-04 08:35 -30.01717 3.62449 39255 ft 499 kts 97°
2026-05-04 08:35 -30.01651 3.70467 39263 ft 499 kts 97°
2026-05-04 08:37 -30.01365 3.98546 39252 ft 501 kts 97°
2026-05-04 08:38 -30.01275 4.06600 39249 ft 502 kts 97°
2026-05-04 08:38 -30.01182 4.14642 39248 ft 502 kts 97°
2026-05-04 08:40 -30.00742 4.47039 39246 ft 505 kts 97°
2026-05-04 08:41 -30.00617 4.55193 39244 ft 506 kts 97°
2026-05-04 08:41 -30.00487 4.63316 39242 ft 506 kts 97°
2026-05-04 08:42 -30.00354 4.71442 39241 ft 507 kts 97°
2026-05-04 08:42 -30.00214 4.79580 39238 ft 508 kts 97°
2026-05-04 08:43 -30.00069 4.87729 39240 ft 508 kts 96°
2026-05-04 08:43 -29.99920 4.95895 39236 ft 509 kts 96°
2026-05-04 08:44 -29.99806 5.04005 39237 ft 508 kts 98°
2026-05-04 08:46 -30.00485 5.36664 39228 ft 508 kts 99°
2026-05-04 08:46 -30.00615 5.44820 39225 ft 509 kts 99°
2026-05-04 08:47 -30.00740 5.52990 39232 ft 509 kts 99°
2026-05-04 08:47 -30.00862 5.61160 39230 ft 510 kts 99°
2026-05-04 08:48 -30.00975 5.69353 39223 ft 511 kts 98°
2026-05-04 08:48 -30.01080 5.77571 39214 ft 512 kts 98°
2026-05-04 08:49 -30.01183 5.85798 39223 ft 513 kts 98°
2026-05-04 08:50 -30.01516 6.14705 39228 ft 517 kts 98°
2026-05-04 08:51 -30.01598 6.23007 39220 ft 518 kts 97°
2026-05-04 08:51 -30.01674 6.31343 39218 ft 519 kts 97°
2026-05-04 08:52 -30.01747 6.39675 39222 ft 520 kts 97°
2026-05-04 08:52 -30.01814 6.48024 39214 ft 521 kts 97°
2026-05-04 08:54 -30.02031 6.81615 39214 ft 525 kts 96°
2026-05-04 08:55 -30.02074 6.90047 39211 ft 526 kts 96°
2026-05-04 08:55 -30.02110 6.98489 39207 ft 527 kts 96°
2026-05-04 09:01 -30.02148 7.86781 39193 ft 537 kts 94°
2026-05-04 09:01 -30.02122 7.95395 39187 ft 538 kts 94°
2026-05-04 09:02 -30.02090 8.03982 39188 ft 539 kts 94°
2026-05-04 09:02 -30.02052 8.12682 39184 ft 539 kts 94°
2026-05-04 09:03 -30.02008 8.21347 39186 ft 540 kts 94°
2026-05-04 09:03 -30.01959 8.29958 39186 ft 541 kts 94°
2026-05-04 09:04 -30.01903 8.38700 39189 ft 542 kts 93°